This is the latest recevied weather packets stored in our database for station/object KJ5IIV. If no packets are shown the sender has not sent any weather packets the latest 1 day(s).
| Time | Temp. | Humidity | Pressure | Rain* | Wind** | Luminosity | Snow |
|---|---|---|---|---|---|---|---|
| 1778107498 | 15° C | 92% | 1012.7 hPa | 0 mm | - | 26 W/m² | - |
| 1778106588 | 15° C | 93% | 1012.7 hPa | 0 mm | - | 56 W/m² | - |
| 1778105981 | 15° C | 94% | 1012.4 hPa | 0 mm | - | 82 W/m² | - |
| 1778104768 | 15° C | 94% | 1012.4 hPa | 0 mm | - | 62 W/m² | - |
| 1778103555 | 15.56° C | 93% | 1012.6 hPa | 0 mm | - | 86 W/m² | - |
| 1778102340 | 16.11° C | 90% | 1013.2 hPa | 0 mm | - | 46 W/m² | - |
| 1778101734 | 16.11° C | 89% | 1013.1 hPa | 0 mm | - | 41 W/m² | - |
| 1778101128 | 16.67° C | 88% | 1012.9 hPa | 0 mm | - | 52 W/m² | - |
| 1778098097 | 16.11° C | 88% | 1012.5 hPa | 0 mm | - | 111 W/m² | - |
| 1778097793 | 16.11° C | 88% | 1012.4 hPa | 0 mm | - | 95 W/m² | - |
| 1778096278 | 16.11° C | 89% | 1012.3 hPa | 0 mm | - | 190 W/m² | - |
| 1778094458 | 15.56° C | 88% | 1011.7 hPa | 0 mm | - | 225 W/m² | - |
| 1778092335 | 15° C | 90% | 1012.2 hPa | 0 mm | - | 245 W/m² | - |
| 1778089300 | 14.44° C | 88% | 1014 hPa | 0 mm | - | 84 W/m² | - |
| 1778088391 | 14.44° C | 88% | 1013.3 hPa | 0 mm | - | 174 W/m² | - |
| 1778088087 | 14.44° C | 88% | 1013.6 hPa | 0 mm | - | 195 W/m² | - |
| 1778087785 | 14.44° C | 89% | 1013.6 hPa | 0 mm | - | 100 W/m² | - |
| 1778087180 | 14.44° C | 88% | 1014.5 hPa | 0 mm | - | 124 W/m² | - |
| 1778086877 | 14.44° C | 89% | 1014.3 hPa | 0 mm | - | 150 W/m² | - |
| 1778086271 | 14.44° C | 89% | 1014.6 hPa | 0 mm | - | 101 W/m² | - |
| 1778085666 | 13.89° C | 89% | 1014.6 hPa | 0 mm | - | 153 W/m² | - |
| 1778085361 | 13.89° C | 90% | 1014.6 hPa | 0 mm | - | 175 W/m² | - |
| 1778084754 | 13.89° C | 91% | 1014.7 hPa | 0 mm | - | 150 W/m² | - |
| 1778081527 | 13.89° C | 88% | 1013.4 hPa | 0 mm | - | 74 W/m² | - |
| 1778080921 | 13.89° C | 88% | 1013.1 hPa | 0 mm | - | 155 W/m² | - |
* Rain latest hour (hover to see other rain measurements)
** Current wind speed in m/s (hover to see current wind gust speed)